Location: Chuathbaluk
(61.5726°N, 159.2454°W)
Time: 03:12:02
(UTC+00:00)

Transit 4A - Pass Details

Date: 05 December 2020
Orbit: 864 x 980 km, 66.8° (Epoch: 26 January)

Event Time Altitude Azimuth Distance (km) Brightness Sun altitude
Rises 20:55:41 0° 270° (W) 3,682 10.8 3.9°
Reaches altitude 10° 20:58:19 10° 275° (W) 2,739 10.1 4.0°
Maximum altitude 21:04:38 55° 353° (N) 1,166 8.2 4.3°
Drops below altitude 10° 21:10:55 10° 71° (ENE) 2,722 10.4 4.5°
Sets 21:13:32 0° 76° (ENE) 3,657 11.1 4.6°
